GW5233 Weather Reports


time (UTC)temp
C
wind
direction
speed
KPH
gust
KPH
rain 1hr
cm
rain 24hr
cm
rain mn
cm
humidity
%
barometer
mb
20260503004612 23 0 0.0 0.0 0.00 0.00 0.00 21 920.3
20260503003113 23 24 4.8 9.7 0.00 0.00 0.00 21 920.4
20260503001609 23 349 1.6 3.2 0.00 0.00 0.00 21 920.4
20260503000109 23 133 0.0 3.2 0.00 0.00 0.00 22 920.4
20260502234609 24 162 3.2 3.2 0.00 0.00 0.00 22 920.5
20260502233108 24 39 8.0 11.3 0.00 0.00 0.00 22 920.5
20260502231611 24 7 4.8 6.4 0.00 0.00 0.00 22 920.5
20260502230115 24 202 0.0 3.2 0.00 0.00 0.00 22 920.5
20260502224609 23 62 1.6 4.8 0.00 0.00 0.00 22 920.5
20260502223110 23 57 6.4 8.0 0.00 0.00 0.00 22 920.4
20260502220115 24 109 4.8 6.4 0.00 0.00 0.00 22 920.4
20260502214612 24 20 6.4 9.7 0.00 0.00 0.00 22 920.5
20260502213108 23 31 8.0 9.7 0.00 0.00 0.00 22 920.4
20260502211616 23 42 6.4 11.3 0.00 0.00 0.00 22 920.4
20260502210114 23 144 4.8 6.4 0.00 0.00 0.00 22 920.4
20260502204612 23 223 3.2 6.4 0.00 0.00 0.00 22 920.5
20260502203108 23 102 1.6 4.8 0.00 0.00 0.00 22 920.3
20260502201618 23 45 6.4 8.0 0.00 0.00 0.00 22 920.4
20260502194612 23 121 0.0 1.6 0.00 0.00 0.00 22 920.4
20260502193108 21 193 8.0 9.7 0.00 0.00 0.00 22 920.1
20260502191613 20 198 9.7 9.7 0.00 0.00 0.00 22 919.9
20260502190113 19 163 6.4 6.4 0.00 0.00 0.00 22 919.8
20260502184608 18 169 3.2 3.2 0.00 0.00 0.00 22 919.7
20260502183108 17 125 4.8 8.0 0.00 0.00 0.00 22 919.5
20260502181616 17 74 9.7 11.3 0.00 0.00 0.00 22 919.5
20260502180108 17 170 3.2 4.8 0.00 0.00 0.00 22 919.5
20260502170109 15 281 1.6 3.2 0.00 0.00 0.00 22 919.2
20260502161609 12 178 4.8 6.4 0.00 0.00 0.00 22 918.8
20260502160115 11 216 4.8 6.4 0.00 0.00 0.00 21 918.7
20260502151614 10 314 4.8 9.7 0.00 0.00 0.00 21 918.5
20260502150111 10 329 1.6 3.2 0.00 0.00 0.00 21 918.5
20260502140109 7 305 6.4 11.3 0.00 0.00 0.00 20 918.1
20260502130113 7 309 11.3 12.9 0.00 0.00 0.00 20 918.1
20260502123108 7 215 4.8 9.7 0.00 0.00 0.00 20 918.1
20260502120114 7 326 6.4 9.7 0.00 0.00 0.00 20 918.1
20260502113111 7 294 19.3 29.0 0.00 0.00 0.00 20 917.9
20260502111614 7 294 17.7 24.1 0.00 0.00 0.00 20 918.1
20260502110108 7 304 16.1 24.1 0.00 0.00 0.00 20 917.9
20260502104609 8 299 14.5 24.1 0.00 0.00 0.00 20 918.1
20260502103109 8 318 11.3 12.9 0.00 0.00 0.00 20 918.2
20260502101608 8 310 6.4 11.3 0.00 0.00 0.00 20 918.2
20260502100109 8 312 8.0 11.3 0.00 0.00 0.00 20 918.2
20260502090111 8 302 3.2 4.8 0.00 0.00 0.00 20 918.3
20260502080110 10 165 6.4 6.4 0.00 0.00 0.00 20 918.4
20260502070120 10 225 6.4 9.7 0.00 0.00 0.00 20 918.5
20260502064615 10 310 4.8 6.4 0.00 0.00 0.00 20 918.4
20260502063114 10 10 3.2 4.8 0.00 0.00 0.00 20 918.5
20260502061608 11 353 6.4 6.4 0.00 0.00 0.00 20 918.5
20260502060123 11 297 4.8 8.0 0.00 0.00 0.00 20 918.5
20260502054608 11 336 3.2 4.8 0.00 0.00 0.00 20 918.5
20260502053114 11 337 3.2 4.8 0.00 0.00 0.00 20 918.5
20260502051623 12 8 8.0 9.7 0.00 0.00 0.00 20 918.6
20260502050111 12 323 6.4 8.0 0.00 0.00 0.00 20 918.6
20260502044615 12 10 4.8 4.8 0.00 0.00 0.00 20 918.6
20260502043109 12 234 3.2 3.2 0.00 0.00 0.00 20 918.7
20260502041617 12 340 3.2 4.8 0.00 0.00 0.00 20 918.7
20260502040118 13 351 3.2 4.8 0.00 0.00 0.00 20 918.8
20260502034608 13 356 3.2 3.2 0.00 0.00 0.00 20 918.8
20260502033114 14 358 3.2 4.8 0.00 0.00 0.00 20 918.9
20260502031622 14 347 4.8 6.4 0.00 0.00 0.00 20 918.9
20260502030115 15 268 0.0 1.6 0.00 0.00 0.00 20 919.0
20260502024611 16 200 1.6 3.2 0.00 0.00 0.00 20 919.2
20260502023110 16 324 1.6 3.2 0.00 0.00 0.00 20 919.3
20260502014616 19 326 3.2 3.2 0.00 0.00 0.00 20 919.7
20260502013109 21 289 3.2 4.8 0.00 0.00 0.00 21 919.9
20260502010110 21 226 12.9 14.5 0.00 0.00 0.00 21 920.0